カタログに戻る

STARLINK-11437

運用中通信VLEO
NORAD 62884·PAYLOAD·🇺🇸 United States

打ち上げ Feb 4, 2025 から Cape Canaveral Space Force Station

Loading…

次のパス (今後24時間)

TLE

最新Source: CelesTrak SupGP

元期: Sep 15, 2026, 02:15 UTC

1 62884C 25024F   26258.09423611  .00098777  00000+0  76724-3 0  2584
2 62884  43.0004 119.9307 0001689 268.6186  84.6554 15.70788032    16

AllMySatでSTARLINK-11437をリアルタイム追跡

Download on the App Store